This is the latest recevied weather packets stored in our database for station/object VK2XSE. If no packets are shown the sender has not sent any weather packets the latest 10 day(s).
| Time | Temp. | Humidity | Pressure | Rain* | Wind** | Luminosity | Snow |
|---|---|---|---|---|---|---|---|
| 1777500918 | 15° C | 63% | 1028.9 hPa | 0 mm | - | 30 W/m² | - |
| 1777500317 | 13.89° C | 65% | 1028.7 hPa | 0 mm | - | 28 W/m² | - |
| 1777499717 | 13.33° C | 66% | 1028.7 hPa | 0 mm | - | 26 W/m² | - |
| 1777499117 | 12.22° C | 68% | 1028.5 hPa | 0 mm | - | 27 W/m² | - |
| 1777498517 | 11.67° C | 69% | 1028.5 hPa | 0 mm | - | 23 W/m² | - |
| 1777497917 | 11.11° C | 69% | 1028.4 hPa | 0 mm | - | 22 W/m² | - |
| 1777497318 | 10.56° C | 69% | 1028.3 hPa | 0 mm | - | 16 W/m² | - |
| 1777496718 | 10.56° C | 68% | 1028.2 hPa | 0 mm | - | 12 W/m² | - |
| 1777496117 | 10° C | 68% | 1028 hPa | 0 mm | - | 5 W/m² | - |
| 1777495517 | 10° C | 68% | 1027.8 hPa | 0 mm | - | 0 W/m² | - |
| 1777494917 | 10° C | 68% | 1027.7 hPa | 0 mm | - | 0 W/m² | - |
| 1777493717 | 10.56° C | 65% | 1027.6 hPa | 0 mm | - | 0 W/m² | - |
| 1777493117 | 10.56° C | 65% | 1027.6 hPa | 0 mm | - | 0 W/m² | - |
| 1777492517 | 10.56° C | 64% | 1027.4 hPa | 0 mm | - | 0 W/m² | - |
| 1777491917 | 11.11° C | 64% | 1027.3 hPa | 0 mm | - | 0 W/m² | - |
| 1777491317 | 11.11° C | 65% | 1027.3 hPa | 0 mm | - | 0 W/m² | - |
| 1777490717 | 11.11° C | 65% | 1027.2 hPa | 0 mm | - | 0 W/m² | - |
| 1777490117 | 11.11° C | 65% | 1027.2 hPa | 0 mm | - | 0 W/m² | - |
| 1777489517 | 11.11° C | 65% | 1027.2 hPa | 0 mm | - | 0 W/m² | - |
| 1777488917 | 11.11° C | 65% | 1027.2 hPa | 0 mm | - | 0 W/m² | - |
| 1777488317 | 11.11° C | 64% | 1027.1 hPa | 0 mm | - | 0 W/m² | - |
| 1777487717 | 11.11° C | 64% | 1027.1 hPa | 0 mm | - | 0 W/m² | - |
| 1777487117 | 11.11° C | 63% | 1027 hPa | 0 mm | - | 0 W/m² | - |
| 1777486517 | 11.67° C | 63% | 1027 hPa | 0 mm | - | 0 W/m² | - |
| 1777485917 | 11.67° C | 62% | 1027.1 hPa | 0 mm | - | 0 W/m² | - |
* Rain latest hour (hover to see other rain measurements)
** Current wind speed in m/s (hover to see current wind gust speed)